DW4070 Weather Reports


time (UTC)temp
F
wind
direction
speed
knots
gust
knots
rain 1hr
in
rain 24hr
in
rain mn
in
humidity
%
barometer
mb
20260906143041 66 264 0.0 0.0 0.00 0.02 0.02 83 1016.9
20260906141539 66 263 0.0 0.0 0.00 0.02 0.02 87 1016.7
20260906140041 65 263 0.0 0.0 0.00 0.02 0.02 88 1016.6
20260906134546 64 263 0.0 0.0 0.00 0.02 0.02 90 1016.5
20260906133049 64 263 0.0 0.0 0.00 0.02 0.02 92 1016.6
20260906131532 63 263 0.0 0.0 0.00 0.02 0.02 95 1016.5
20260906130031 63 263 0.0 0.0 0.00 0.02 0.02 96 1016.2
20260906124528 62 263 0.0 0.0 0.00 0.02 0.02 96 1016.3
20260906123031 62 263 0.0 0.0 0.00 0.02 0.02 96 1016.2
20260906121528 62 263 0.0 0.0 0.00 0.02 0.02 96 1016.0
20260906120025 62 263 0.0 0.0 0.01 0.02 0.02 96 1016.2
20260906114523 61 263 0.0 0.0 0.01 0.02 0.02 96 1015.9
20260906113022 61 263 0.0 0.0 0.01 0.02 0.02 96 1015.7
20260906111520 61 263 0.0 0.0 0.01 0.02 0.02 95 1015.5
20260906110019 61 263 0.0 0.0 0.00 0.01 0.01 95 1015.5
20260906104522 61 263 0.0 0.0 0.00 0.01 0.01 95 1015.1
20260906103014 61 263 0.0 0.0 0.00 0.01 0.01 95 1014.9
20260906101516 61 263 0.0 0.0 0.00 0.01 0.01 95 1014.7
20260906100010 62 263 0.0 0.0 0.00 0.01 0.01 95 1014.5
20260906094509 62 263 0.0 0.0 0.00 0.01 0.01 95 1014.7
20260906093006 62 263 0.0 0.0 0.00 0.01 0.01 94 1014.4
20260906091506 63 263 0.0 0.0 0.00 0.01 0.01 95 1014.3
20260906090003 63 263 0.0 0.0 0.00 0.01 0.01 95 1014.2
20260906084502 63 263 0.0 0.0 0.00 0.01 0.01 95 1014.0
20260906083000 63 263 0.0 0.0 0.00 0.01 0.01 95 1013.8
20260906081600 63 263 0.0 0.0 0.00 0.01 0.01 95 1013.7
20260906080104 63 263 0.0 0.0 0.00 0.01 0.01 95 1013.7
20260906074602 63 263 0.0 0.0 0.00 0.01 0.01 95 1013.8
20260906073058 63 263 0.0 0.0 0.00 0.01 0.01 95 1013.7
20260906071558 64 263 0.0 0.0 0.00 0.01 0.01 95 1013.9
20260906070057 64 263 0.0 0.0 0.01 0.01 0.01 95 1013.9
20260906064556 64 263 0.0 0.0 0.01 0.01 0.01 95 1013.7
20260906063055 64 263 0.0 2.6 0.01 0.01 0.01 96 1013.8
20260906061557 63 112 0.0 0.0 0.01 0.01 0.01 96 1014.0
20260906060052 63 103 0.0 0.0 0.00 0.00 0.00 95 1014.2
20260906054603 63 103 0.0 0.0 0.00 0.00 0.00 94 1014.0
20260906053054 63 103 0.0 0.0 0.00 0.00 0.00 94 1014.0
20260906051548 63 103 0.0 0.0 0.00 0.00 0.00 94 1014.0
20260906050108 63 103 0.0 0.0 0.00 0.00 0.00 94 1014.0
20260906044549 63 103 0.0 0.0 0.00 0.00 0.00 94 1014.1
20260906043047 63 103 0.0 0.0 0.00 0.00 0.00 95 1014.0
20260906041545 63 103 0.0 0.0 0.00 0.00 0.00 94 1014.0
20260906040043 63 103 0.0 0.0 0.00 0.00 0.00 93 1014.0
20260906034544 63 103 0.0 0.0 0.00 0.00 0.00 94 1013.7
20260906033052 63 103 0.0 0.0 0.00 0.00 0.00 94 1013.6
20260906031538 63 103 0.0 0.0 0.00 0.00 0.00 93 1013.6
20260906030040 63 103 0.0 0.0 0.00 0.00 0.00 92 1013.5
20260906024539 63 103 0.0 0.0 0.00 0.00 0.00 92 1013.5
20260906023036 63 103 0.0 0.0 0.00 0.00 0.00 92 1013.4
20260906021542 64 103 0.0 0.0 0.00 0.00 0.00 92 1013.3
20260906020043 64 103 0.0 0.0 0.00 0.00 0.00 91 1013.4
20260906014544 64 103 0.0 0.0 0.00 0.00 0.00 91 1013.3
20260906013035 65 103 0.0 0.0 0.00 0.00 0.00 90 1013.1
20260906011531 65 103 0.0 0.0 0.00 0.00 0.00 90 1012.9
20260906010029 65 103 0.0 0.0 0.00 0.00 0.00 89 1012.7
20260906004528 66 103 0.0 0.0 0.00 0.00 0.00 88 1012.6
20260906003026 67 103 0.0 0.0 0.00 0.00 0.00 87 1012.5
20260906001527 68 103 0.0 0.0 0.00 0.00 0.00 86 1012.3
20260906000024 69 103 0.0 0.0 0.00 0.00 0.00 84 1012.0
20260905234522 69 103 0.0 0.0 0.00 0.00 0.00 81 1012.0
20260905233032 70 103 0.0 0.0 0.00 0.00 0.00 81 1011.8
20260905231525 71 103 0.0 0.0 0.00 0.00 0.00 81 1011.8
20260905230021 71 103 0.0 1.7 0.00 0.00 0.00 84 1011.7
20260905224522 72 103 0.0 0.0 0.00 0.00 0.00 82 1011.5
20260905223020 72 103 0.0 0.0 0.00 0.00 0.00 82 1011.4
20260905221530 73 103 0.0 0.0 0.00 0.00 0.00 81 1011.3
20260905220019 73 273 0.0 1.7 0.00 0.00 0.00 79 1011.2
20260905214520 74 283 0.0 0.0 0.00 0.00 0.00 79 1011.2
20260905213019 74 283 0.0 0.0 0.00 0.00 0.00 76 1011.1
20260905211527 75 283 0.0 0.0 0.00 0.00 0.00 76 1011.0
20260905210017 75 283 0.0 0.0 0.00 0.00 0.00 70 1010.8
20260905204516 75 283 0.0 0.9 0.00 0.00 0.00 69 1010.7
20260905203017 76 283 0.0 1.7 0.00 0.00 0.00 62 1010.6
20260905201516 76 283 0.0 0.9 0.00 0.00 0.00 67 1010.6
20260905200016 77 283 0.0 2.6 0.00 0.00 0.00 59 1010.7
20260905194515 78 283 0.0 1.7 0.00 0.00 0.00 59 1010.6
20260905193013 79 283 0.0 1.7 0.00 0.00 0.00 59 1010.7
20260905191515 80 283 0.0 1.7 0.00 0.00 0.00 58 1010.7
20260905190012 80 283 0.0 1.7 0.00 0.00 0.00 59 1010.8
20260905184516 80 283 0.0 2.6 0.00 0.00 0.00 59 1010.8
20260905183009 79 283 0.0 0.9 0.00 0.00 0.00 62 1010.9
20260905181508 78 283 0.0 0.0 0.00 0.00 0.00 71 1011.1
20260905180008 78 283 0.0 1.7 0.00 0.00 0.00 64 1011.2
20260905174508 78 283 0.0 2.6 0.00 0.00 0.00 66 1011.3
20260905173007 79 283 0.0 2.6 0.00 0.00 0.00 63 1011.3
20260905171509 79 283 0.0 0.9 0.00 0.00 0.00 64 1011.5
20260905170004 79 283 0.9 2.6 0.00 0.00 0.00 60 1011.5
20260905164508 78 283 0.0 2.6 0.00 0.00 0.00 68 1011.5
20260905163001 78 283 0.0 2.6 0.00 0.00 0.00 68 1011.5
20260905161559 78 283 0.0 1.7 0.00 0.00 0.00 66 1011.4
20260905160057 77 283 0.0 2.6 0.00 0.00 0.00 70 1011.5
20260905154605 77 283 0.0 4.3 0.00 0.00 0.00 65 1011.5
20260905153053 76 283 0.0 3.5 0.00 0.00 0.00 70 1011.5
20260905151549 74 283 0.9 3.5 0.00 0.00 0.00 72 1011.6
20260905150046 73 283 0.0 2.6 0.00 0.00 0.00 74 1011.7
20260905144543 71 282 0.0 2.6 0.00 0.00 0.00 76 1011.6